Weather History for KAXH - October, 2011

Change the Weather History Date:

Friday, October 28, 2011

  Actual Average (KHOU) Record (KHOU)
Temperature  
Mean Temperature 56 °F 68 °F  
Max Temperature 59 °F 79 °F 90 °F (1991)
Min Temperature 53 °F 58 °F 36 °F (1898)
Degree Days  
Heating Degree Days 9 2  
Month to date heating degree days 21  
Since 1 July heating degree days 22  
Cooling Degree Days 0 5  
Month to date cooling degree days 213  
Year to date cooling degree days 3038  
Growing Degree Days 6 (Base 50)    
Moisture  
Dew Point 48 °F    
Average Humidity 74    
Maximum Humidity 94    
Minimum Humidity 55    
Precipitation  
Precipitation 0.00 in 0.18 in 8.04 in (2002)
Month to date precipitation 5.19  
Year to date precipitation 41.18  
Sea Level Pressure  
Sea Level Pressure 30.10 in    
Wind  
Wind Speed 13 mph (NNW)    
Max Wind Speed 20 mph    
Max Gust Speed 28 mph    
Visibility 10 miles    
Events      
T = Trace of Precipitation, MM = Missing Value Source: NWS Daily Summary

Daily Weather History Graph

Daily Weather History Graph

Search for Another Location

Airport or City:

Trip Planner

Search our weather history database for the weather conditions in past years. The results will help you decide how hot, cold, wet, or windy it might be!

Date:

Astronomy

Oct. 28, 2011 Rise Set
Actual Time 7:31 AM CDT 6:38 PM CDT
Civil Twilight 7:07 AM CDT 7:03 PM CDT
Nautical Twilight 6:39 AM CDT 7:31 PM CDT
Astronomical Twilight 6:11 AM CDT 7:59 PM CDT
Moon 9:36 AM CDT (10/28) 8:16 PM CDT (10/28)
Length of Visible Light 11h 55m
Length of Day
11h 06m
Waxing Crescent, 5% of the Moon is Illuminated
Oct 28
Waxing Crescent
Nov 2
First Quarter
Nov 10
Full
Nov 18
Last Quarter
Nov 25
New

Hourly Weather History & Observations

Time (CDT) Temp. Windchill Dew Point Humidity Pressure Visibility Wind Dir Wind Speed Gust Speed Precip Events Conditions
12:15 AM 59.0 °F - 55.4 °F 88% 30.00 in 10.0 mi NW 15.0 mph 21.9 mph N/A   Overcast
12:35 AM 59.0 °F - 55.4 °F 88% 29.99 in 10.0 mi NNW 12.7 mph 18.4 mph N/A   Overcast
12:55 AM 57.2 °F - 53.6 °F 88% 29.99 in 10.0 mi NNW 13.8 mph 24.2 mph N/A   Overcast
1:15 AM 55.4 °F - 53.6 °F 94% 29.99 in 10.0 mi NNW 13.8 mph 19.6 mph N/A   Overcast
1:35 AM 55.4 °F - 53.6 °F 94% 30.00 in 10.0 mi NNW 11.5 mph 17.3 mph N/A   Overcast
1:55 AM 55.4 °F - 51.8 °F 88% 29.99 in 10.0 mi North 11.5 mph 18.4 mph N/A   Overcast
2:15 AM 55.4 °F - 51.8 °F 88% 30.01 in 10.0 mi NNW 12.7 mph 20.7 mph N/A   Overcast
2:35 AM 55.4 °F - 51.8 °F 88% 30.01 in 10.0 mi NNW 13.8 mph 21.9 mph N/A   Overcast
2:55 AM 55.4 °F - 51.8 °F 88% 30.01 in 10.0 mi NNW 12.7 mph 17.3 mph N/A   Overcast
3:15 AM 55.4 °F - 51.8 °F 88% 30.01 in 10.0 mi NNW 12.7 mph 17.3 mph N/A   Overcast
3:35 AM 55.4 °F - 51.8 °F 88% 30.00 in 10.0 mi North 15.0 mph 23.0 mph N/A   Overcast
3:55 AM 55.4 °F - 51.8 °F 88% 30.01 in 10.0 mi NNW 9.2 mph 18.4 mph N/A   Overcast
4:15 AM 55.4 °F - 51.8 °F 88% 30.02 in 10.0 mi NNW 11.5 mph - N/A   Overcast
4:35 AM 55.4 °F - 51.8 °F 88% 30.02 in 10.0 mi NNW 12.7 mph 17.3 mph N/A   Overcast
4:55 AM 55.4 °F - 51.8 °F 88% 30.01 in 10.0 mi North 11.5 mph 19.6 mph N/A   Overcast
5:15 AM 55.4 °F - 51.8 °F 88% 30.03 in 10.0 mi NNW 9.2 mph - N/A   Overcast
5:35 AM 55.4 °F - 51.8 °F 88% 30.02 in 10.0 mi North 15.0 mph 21.9 mph N/A   Overcast
5:55 AM 55.4 °F - 51.8 °F 88% 30.05 in 10.0 mi NNW 10.4 mph 20.7 mph N/A   Overcast
6:15 AM 55.4 °F - 51.8 °F 88% 30.06 in 10.0 mi NNW 11.5 mph 19.6 mph N/A   Overcast
6:35 AM 55.4 °F - 51.8 °F 88% 30.07 in 10.0 mi NNW 11.5 mph 17.3 mph N/A   Overcast
6:55 AM 55.4 °F - 51.8 °F 88% 30.07 in 10.0 mi NNW 12.7 mph 18.4 mph N/A   Overcast
7:15 AM 55.4 °F - 51.8 °F 88% 30.07 in 10.0 mi NNW 13.8 mph 23.0 mph N/A   Overcast
7:35 AM 55.4 °F - 51.8 °F 88% 30.09 in 10.0 mi NNW 9.2 mph - N/A   Overcast
7:55 AM 55.4 °F - 51.8 °F 88% 30.09 in 7.0 mi North 9.2 mph 18.4 mph N/A   Overcast
8:15 AM 53.6 °F - 51.8 °F 94% 30.10 in 7.0 mi North 12.7 mph - N/A   Overcast
8:55 AM 55.4 °F - 46.4 °F 72% 30.12 in 10.0 mi North 13.8 mph 21.9 mph N/A   Overcast
9:15 AM 55.4 °F - 46.4 °F 72% 30.13 in 10.0 mi North 17.3 mph 24.2 mph N/A   Overcast
9:35 AM 55.4 °F - 46.4 °F 72% 30.14 in 10.0 mi North 19.6 mph 27.6 mph N/A   Overcast
9:55 AM 55.4 °F - 46.4 °F 72% 30.14 in 10.0 mi North 15.0 mph 23.0 mph N/A   Overcast
10:15 AM 55.4 °F - 46.4 °F 72% 30.15 in 10.0 mi North 16.1 mph 20.7 mph N/A   Overcast
10:35 AM 55.4 °F - 46.4 °F 72% 30.15 in 10.0 mi North 13.8 mph 19.6 mph N/A   Overcast
10:55 AM 55.4 °F - 46.4 °F 72% 30.16 in 10.0 mi NNW 16.1 mph 21.9 mph N/A   Overcast
11:15 AM 57.2 °F - 48.2 °F 72% 30.16 in 10.0 mi NNW 13.8 mph 21.9 mph N/A   Overcast
11:35 AM 57.2 °F - 46.4 °F 67% 30.17 in 10.0 mi North 15.0 mph 20.7 mph N/A   Overcast
11:55 AM 57.2 °F - 46.4 °F 67% 30.17 in 10.0 mi North 13.8 mph 23.0 mph N/A   Overcast
12:15 PM 57.2 °F - 46.4 °F 67% 30.17 in 10.0 mi North 12.7 mph 20.7 mph N/A   Overcast
12:35 PM 59.0 °F - 46.4 °F 63% 30.16 in 10.0 mi North 15.0 mph 19.6 mph N/A   Overcast
12:55 PM 59.0 °F - 46.4 °F 63% 30.16 in 10.0 mi NNW 15.0 mph 20.7 mph N/A   Overcast
1:15 PM 59.0 °F - 46.4 °F 63% 30.15 in 10.0 mi NNW 15.0 mph 20.7 mph N/A   Overcast
1:35 PM 57.2 °F - 44.6 °F 63% 30.14 in 10.0 mi North 15.0 mph 23.0 mph N/A   Overcast
1:55 PM 59.0 °F - 44.6 °F 59% 30.13 in 10.0 mi North 15.0 mph - N/A   Overcast
2:15 PM 59.0 °F - 44.6 °F 59% 30.13 in 10.0 mi NNW 15.0 mph 18.4 mph N/A   Overcast
2:35 PM 59.0 °F - 44.6 °F 59% 30.13 in 10.0 mi North 13.8 mph 23.0 mph N/A   Overcast
2:55 PM 59.0 °F - 44.6 °F 59% 30.12 in 10.0 mi North 16.1 mph 20.7 mph N/A   Overcast
3:15 PM 59.0 °F - 44.6 °F 59% 30.12 in 10.0 mi NNW 11.5 mph 19.6 mph N/A   Overcast
3:35 PM 59.0 °F - 44.6 °F 59% 30.13 in 10.0 mi NNW 11.5 mph 18.4 mph N/A   Overcast
3:55 PM 59.0 °F - 44.6 °F 59% 30.13 in 10.0 mi North 11.5 mph 19.6 mph N/A   Overcast
4:15 PM 59.0 °F - 44.6 °F 59% 30.14 in 10.0 mi NNW 11.5 mph 17.3 mph N/A   Overcast
4:35 PM 59.0 °F - 42.8 °F 55% 30.14 in 10.0 mi North 11.5 mph 17.3 mph N/A   Overcast
4:55 PM 59.0 °F - 42.8 °F 55% 30.14 in 10.0 mi North 13.8 mph 21.9 mph N/A   Overcast
5:15 PM 59.0 °F - 42.8 °F 55% 30.15 in 10.0 mi North 15.0 mph 24.2 mph N/A   Overcast
5:35 PM 59.0 °F - 42.8 °F 55% 30.16 in 10.0 mi North 17.3 mph 25.3 mph N/A   Overcast
5:55 PM 57.2 °F - 42.8 °F 59% 30.17 in 10.0 mi North 13.8 mph 23.0 mph N/A   Overcast
6:15 PM 57.2 °F - 42.8 °F 59% 30.17 in 10.0 mi North 13.8 mph 24.2 mph N/A   Overcast
6:35 PM 57.2 °F - 41.0 °F 55% 30.19 in 10.0 mi North 17.3 mph 25.3 mph N/A   Overcast
6:55 PM 55.4 °F - 42.8 °F 63% 30.19 in 10.0 mi North 9.2 mph - N/A   Overcast
7:15 PM 55.4 °F - 42.8 °F 63% 30.20 in 10.0 mi North 6.9 mph 17.3 mph N/A   Scattered Clouds
7:35 PM 53.6 °F - 41.0 °F 62% 30.21 in 10.0 mi North 8.1 mph - N/A   Clear
7:55 PM 53.6 °F - 41.0 °F 62% 30.22 in 10.0 mi North 5.8 mph - N/A   Clear
8:15 PM 51.8 °F - 42.8 °F 71% 30.22 in 10.0 mi Calm Calm - N/A   Clear
8:35 PM 51.8 °F - 42.8 °F 71% 30.23 in 10.0 mi Calm Calm - N/A   Clear
8:55 PM 50.0 °F - 42.8 °F 76% 30.23 in 10.0 mi Calm Calm - N/A   Clear
9:15 PM 48.2 °F - 42.8 °F 82% 30.24 in 10.0 mi Calm Calm - N/A   Clear
9:35 PM 44.6 °F - 41.0 °F 87% 30.24 in 10.0 mi Calm Calm - N/A   Clear
9:55 PM 44.6 °F - 42.8 °F 93% 30.25 in 10.0 mi Calm Calm - N/A   Clear
10:15 PM 44.6 °F - 42.8 °F 93% 30.26 in 7.0 mi Calm Calm - N/A   Clear
10:35 PM 42.8 °F - 42.8 °F 100% 30.26 in 7.0 mi Calm Calm - N/A   Clear
10:55 PM 42.8 °F - 42.8 °F 100% 30.26 in 5.0 mi Calm Calm - N/A   Clear
11:15 PM 42.8 °F - 42.8 °F 100% 30.27 in 7.0 mi Calm Calm - N/A   Clear
11:35 PM 42.8 °F - 42.8 °F 100% 30.27 in 7.0 mi Calm Calm - N/A   Clear
11:55 PM 42.8 °F 41.1 °F 42.8 °F 100% 30.27 in 10.0 mi WNW 3.5 mph - N/A   Clear